Location: Downe
(51.3167°N, 0.0500°E)
Time: 00:01:45
(UTC+00:00)

NOSS 3-3 (C) - Pass Details

Date: 17 November 2019
Orbit: 844 x 1368 km, 63.4° (Epoch: 30 November)

Event Time Altitude Azimuth Distance (km) Brightness Sun altitude
Exits shadow 04:51:53 21° 210° (SSW) 1,959 5.3 -22.8°
Maximum altitude 04:56:07 74° 130° (SE) 1,012 4.1 -22.2°
Drops below altitude 10° 05:02:52 10° 47° (NE) 2,905 7.0 -21.1°
Sets 05:05:42 0° 45° (NE) 3,946 7.8 -20.7°
